map of TCL home
TCL - Airport
Location
City:  Tuscaloosa, Alabama, United States
Name:Tuscaloosa Regional
ICAO:KTCL
IATA:TCL
FAA LID:TCL

Details
Type:Airport (Part 139 Class IV)
Use:Public/Civil, International (customs landing rights)
Latitude:3313'14"N (33.220628)
Longitude:8736'41"W (-87.611400)
Datum:WGS 1984
Elevation:169 ft (52 m)
Variation:2.93W (WMM2015 magnetic declination)
-0.10 annual change
Runways:2
Longest:6499 × 150 ft (1981 × 45.5 m), paved

Time
Time Zone:UTC-6 (DST-5)
Local Time:

Weather
METAR:KTCL 120353Z AUTO 00000KT 8SM CLR M01/M02 A3031 RMK AO2 SLP263 T10061022
TAF:KTCL 112340Z 1200/1224 00000KT P6SM SKC
FM121600 20006KT P6SM SCT250

Related Locations
Nearby:
Farthest:MQZ: 11136 mi / 17921 km
Margaret River [Margaret River Airport], WA, AU

Find:

   beyond  
but within

Other Information
Maps:
NOTAMs:
Links:
Sources:

  
  • flag of United States
  • flag of Alabama
  

Airport Diagram

Airport diagram for TCL

Airport diagram PDF

Sectional Chart

Flight Planning
at skyvector.com

Satellite Image

Google Maps Satellite view

 

Copyright © 2004-2018 Karl L. Swartz. All rights reserved.
The Great Circle Mapper name and logo are trademarks of the Great Circle Mapper.
All other trademarks mentioned herein belong to their respective owners.
Please see credits for attibutions and further copyright information.

  Follow gcmap on Facebook Follow gcmap on Twitter Follow gcmap on Google+ GCmap on LinkedIn

hCard Microformat

Geo Microformat